Location: Fauquembergues
(50.6005°N, 2.0987°E)
Time: 10:27:31
(UTC+00:00)

Meteor 1-25 Rocket - Pass Details

Date: 14 July 2020
Orbit: 837 x 891 km, 81.2° (Epoch: 05 August)

Event Time Altitude Azimuth Distance (km) Brightness Sun altitude
Exits shadow 00:47:42 27° 180° (S) 1,571 5.0 -16.9°
Maximum altitude 00:50:50 75° 99° (E) 876 4.2 -16.8°
Drops below altitude 10° 00:56:24 10° 15° (NNE) 2,467 8.0 -16.6°
Sets 00:58:49 0° 14° (NNE) 3,404 9.2 -16.5°
